SHASTA DAM (USBR) (SHA)

Elevation: 1067' · SACRAMENTO R basin · Operator: US Bureau of Reclamation

Provisional data, subject to change.
Query executed Thursday at 16:04:30   clock

Select a sensor type for a plot of data.
Note: Reservoir Flows are daily averages.

Earlier

Date RES ELE    STORAGE    RES CHG    TOC STO    ABV TOC    OUTFLOW    INFLOW    EVAP    FNF    RIV REL    PPT INC    RAIN    SPILL    DIS PWR   
 FEET   AF   AF   AF   AF   CFS   CFS   CFS   CFS   CFS   INCHES   INCHES   CFS   CFS  
01/28/2015 956.97 1994282 5141 3755454 -1761172 2121 4733 20 4353 22 0.00 34.75 0 2099
01/29/2015 957.52 2003761 9479 3767332 -1763572 3614 8433 40 5408 e 0 0.00 34.75 0 3614
01/30/2015 957.48 2003072 -689 3786327 -1783255 3519 3192 20 5408 e 0 0.00 34.75 0 3519
01/31/2015 957.35 2000830 -2242 3806229 -1805399 3610 2546 66 5408 e 0 0.00 34.75 0 3610
02/01/2015 957.52 2003761 2931 3824802 -1821041 1946 3475 51 4301 0 0.00 34.75 0 1946
02/02/2015 957.80 2008589 4828 3841926 -1833337 2006 4460 20 4754 0 0.25 35.00 0 2006
02/03/2015 957.87 2009796 1207 3858231 -1848435 4376 5000 15 5048 0 0.44 35.44 0 4376
02/04/2015 958.44 2019668 9872 3871373 -1851705 2040 7053 36 4192 0 0.00 35.44 0 2040
02/05/2015 958.88 2027300 7632 3883914 -1856614 3571 7439 20 4946 0 0.00 35.44 0 3571
02/06/2015 961.37 2070782 43482 3870464 -1799682 1649 23597 26 21926 0 1.54 36.98 0 1649
02/07/2015 966.04 2153850 83068 3826511 -1672661 357 42253 16 46373 0 6.65 43.63 0 357
02/08/2015 969.71 2220757 66907 3796436 -1575679 523 34271 16 37015 0 0.70 44.33 0 523
02/09/2015 974.62 2312505 91748 3742140 -1429635 2433 48717 28 49689 0 1.36 45.69 0 2433
02/10/2015 977.40 2365605 53100 3726064 -1360458 376 27181 34 28729 0 0.20 45.89 0 376
02/11/2015 979.40 2404329 38724 3720628 -1316298 1779 21359 57 19869 0 0.00 45.89 0 1779
02/12/2015 980.96 2434797 30468 3724137 -1289340 1109 16528 58 15064 0 0.00 45.89 0 1109
02/13/2015 982.21 2459405 24608 3733003 -1273598 1187 13674 81 12355 0 0.00 45.89 0 1187
02/14/2015 983.08 2476622 17217 3749313 -1272691 1026 9735 29 10952 0 0.00 45.89 0 1026
02/15/2015 983.90 2492935 16313 3766013 -1273078 1213 9484 47 9505 0 0.00 45.89 0 1213
02/16/2015 984.54 2505726 12791 3784574 -1278848 1956 8482 77 8890 0 0.00 45.89 0 1956
02/17/2015 985.25 2519956 14230 3802402 -1282446 1504 8784 106 8198 0 0.00 45.89 0 1504
02/18/2015 986.02 2535448 15492 3819986 -1284538 974 8843 59 8201 0 0.00 45.89 0 974
02/19/2015 986.54 2546018 10570 3840911 -1294894 1802 7167 36 7083 0 0.00 45.89 0 1802
02/20/2015 987.11 2557594 11576 3860131 -1302537 2015 7893 42 6778 0 0.00 45.89 0 2015
02/21/2015 987.70 2569535 11941 3879068 -- 1783 7953 150 7045 0 0.00 45.89 0 1783
02/22/2015 988.13 2578266 8731 3900804 -1322538 2152 6596 42 6251 0 0.00 45.89 0 2152
02/23/2015 988.66 2589105 10839 3919779 -1330674 2181 7754 108 6821 e 0 0.00 45.89 0 2181
02/24/2015 988.92 2594423 5318 3944828 -1350404 2214 4979 84 6821 e 0 0.00 45.89 0 2214
02/25/2015 989.11 2598321 3898 3970206 -1371886 2659 4715 91 5723 0 0.00 45.89 0 2659
02/26/2015 -- -- -- -- -- -- -- -- -- -- -- -- -- --

Later | Latest

Warning! This data is preliminary and subject to revision.

Show SHA Map | Plot SHA Data | 1 Month SHA Data | Real-Time SHA Data | SHA Info